GFSNE_925_temp_108.txt.gz
Temp
12 12 13 14 15 16 17 16 17 17 17 16 16 14 14 14 13 14 14 13 15 15 15 15 15 15 14 14 14 13 13 12 11 11 11 11 11 11
11 12 12 13 15 16 16 15 16 16 17 17 16 15 15 14 14 14 14 14 15 14 14 15 14 14 13 13 13 12 11 11 11 10 9 9 9 9
11 11 11 11 13 15 15 16 15 16 16 15 15 14 15 15 14 13 13 13 13 13 14 14 14 13 12 12 11 10 10 10 9 8 7 7 6 5
11 11 11 10 11 12 13 13 14 14 14 13 14 14 15 14 14 13 13 11 11 12 12 11 10 10 10 10 9 8 7 6 5 5 4 3 3 2
10 11 11 10 10 12 11 12 12 13 13 12 13 13 13 14 14 13 11 10 9 8 7 7 7 6 5 4 3 2 2 2 1 1 -0 0 1 0
10 10 10 11 11 11 10 11 13 13 12 11 11 11 12 12 12 11 10 8 6 4 3 4 3 1 0 -0 -1 -1 -1 -1 -0 -0 -1 -1 -2 -2
10 10 11 11 11 11 11 11 12 12 11 10 10 10 11 11 10 11 10 8 4 2 2 0 0 -0 -2 -2 -2 -2 -2 -3 -3 -3 -3 -3 -3 -3
10 10 10 10 10 11 11 11 10 10 10 10 10 10 10 10 10 10 9 4 1 1 -0 -3 -2 -3 -4 -4 -4 -4 -4 -5 -5 -4 -4 -3 -3 -3
10 10 10 10 10 10 10 10 10 11 10 10 10 10 10 10 10 9 6 3 -0 -2 -2 -5 -5 -4 -5 -5 -5 -5 -5 -5 -5 -4 -4 -4 -5 -6
10 10 10 10 10 10 10 10 9 8 8 8 7 7 6 7 5 5 4 1 -3 -4 -4 -5 -6 -6 -5 -5 -5 -6 -6 -6 -5 -5 -5 -5 -7 -7
11 10 11 10 11 10 10 7 2 -0 -2 -1 -3 -3 -1 1 1 1 -2 -3 -5 -7 -5 -6 -7 -6 -6 -5 -6 -6 -5 -5 -5 -7 -8 -8 -9 -8
11 10 11 11 11 10 8 5 -1 -5 -4 -5 -4 -3 -3 -3 -3 -3 -3 -5 -6 -7 -7 -6 -7 -7 -5 -7 -7 -6 -6 -6 -7 -7 -8 -8 -8 -8
5 4 5 7 7 4 4 1 -3 -5 -6 -5 -5 -5 -5 -5 -5 -4 -4 -5 -7 -8 -8 -7 -8 -8 -7 -5 -5 -6 -6 -6 -6 -6 -6 -7 -8 -8
1 -0 -1 1 0 0 -1 -3 -4 -4 -6 -7 -8 -9 -9 -9 -9 -8 -8 -7 -8 -9 -9 -9 -9 -8 -7 -6 -4 -5 -5 -6 -6 -6 -6 -7 -7 -7
-4 -5 -6 -6 -6 -7 -8 -7 -6 -7 -8 -9 -10 -10 -10 -10 -10 -11 -11 -11 -11 -11 -10 -10 -9 -9 -8 -7 -6 -5 -6 -6 -6 -6 -7 -7 -7 -6
-7 -7 -7 -7 -7 -7 -6 -6 -7 -8 -8 -9 -10 -10 -10 -10 -10 -10 -10 -10 -10 -11 -11 -10 -10 -9 -8 -7 -7 -6 -6 -6 -6 -7 -7 -7 -7 -6
-6 -6 -6 -6 -6 -7 -7 -8 -8 -8 -8 -9 -9 -9 -10 -10 -11 -11 -10 -9 -8 -8 -8 -9 -9 -9 -9 -9 -7 -6 -7 -7 -7 -8 -8 -7 -6 -6
-4 -5 -5 -5 -5 -6 -7 -7 -8 -8 -8 -8 -9 -9 -9 -9 -9 -9 -9 -8 -8 -8 -8 -9 -8 -7 -6 -8 -9 -8 -8 -9 -9 -8 -7 -8 -6 -6
-5 -6 -6 -6 -6 -7 -7 -8 -9 -9 -9 -9 -9 -9 -9 -10 -9 -9 -9 -8 -8 -8 -8 -9 -8 -8 -6 -5 -7 -10 -10 -10 -9 -8 -8 -8 -8 -7
-6 -6 -7 -7 -7 -8 -8 -9 -9 -10 -10 -10 -10 -10 -10 -9 -9 -9 -9 -9 -8 -8 -8 -8 -9 -10 -9 -9 -10 -10 -10 -10 -10 -10 -9 -9 -8 -6
-7 -8 -8 -8 -9 -9 -10 -10 -11 -11 -11 -11 -11 -11 -11 -10 -10 -10 -12 -12 -10 -9 -8 -9 -10 -12 -12 -10 -9 -8 -9 -10 -11 -11 -11 -10 -7 -5
-9 -9 -10 -10 -10 -11 -11 -12 -12 -12 -12 -12 -12 -12 -12 -11 -11 -11 -11 -10 -10 -10 -10 -10 -11 -10 -10 -10 -9 -10 -9 -10 -9 -9 -9 -9 -8 -5
-10 -11 -11 -11 -11 -11 -11 -12 -12 -12 -12 -13 -13 -13 -13 -12 -12 -12 -12 -12 -12 -11 -11 -10 -10 -10 -10 -10 -11 -10 -9 -9 -8 -8 -7 -7 -7 -7

GFSNE_925_temp_111.txt.gz
Temp
12 12 13 13 14 15 17 17 17 16 17 15 15 15 15 15 14 14 14 14 14 14 14 14 14 14 14 14 13 13 13 13 12 12 11 10 10 10
12 11 11 12 13 14 15 17 17 17 16 16 15 15 15 15 15 15 13 13 13 13 14 14 14 14 14 13 13 12 12 11 10 9 8 8 8 8
11 11 11 12 12 12 13 14 16 17 17 18 16 15 14 14 14 13 14 13 13 12 13 12 13 13 11 10 10 10 9 9 9 8 7 6 4 3
11 11 11 11 11 12 12 14 15 15 16 16 17 15 14 14 13 13 13 12 12 13 12 12 10 9 9 9 9 8 8 8 7 5 4 2 1 1
11 11 11 11 11 12 12 11 13 14 14 14 14 14 13 13 12 11 11 11 10 10 9 8 8 8 7 7 7 6 4 3 2 1 1 1 1 0
10 11 10 11 11 11 11 11 11 12 12 12 12 12 12 13 12 11 9 10 7 6 4 6 3 3 2 2 1 -0 -0 -0 0 -0 -0 -1 -1 -2
10 10 10 10 10 11 10 10 10 10 11 11 11 11 11 11 11 11 10 8 4 4 4 1 1 0 -1 -2 -2 -3 -2 -2 -2 -2 -2 -2 -1 -1
10 10 10 10 10 11 11 10 11 10 10 10 11 10 11 11 11 11 10 5 2 3 2 -1 -1 -2 -3 -3 -3 -3 -3 -3 -3 -3 -3 -3 -3 -3
9 10 9 10 10 10 10 10 10 10 10 10 10 10 10 10 10 10 9 7 2 -1 -0 -4 -4 -4 -4 -4 -4 -4 -4 -4 -3 -3 -4 -4 -4 -4
10 10 10 10 10 10 10 9 9 8 8 9 9 8 8 8 7 7 6 3 -1 -3 -3 -5 -5 -5 -5 -5 -5 -5 -5 -4 -4 -4 -5 -5 -6 -6
10 10 10 9 10 10 10 8 5 3 1 3 3 2 3 3 3 2 2 -1 -5 -5 -4 -5 -6 -6 -5 -5 -5 -5 -4 -5 -6 -6 -6 -7 -7 -7
9 9 9 10 9 10 9 8 2 -1 -1 -2 -2 -1 -1 -1 -1 -0 -2 -2 -5 -6 -6 -6 -6 -6 -5 -5 -5 -5 -5 -5 -6 -6 -6 -6 -7 -7
6 5 5 6 9 8 6 3 -1 -4 -4 -3 -4 -4 -4 -3 -3 -3 -3 -3 -4 -7 -6 -6 -7 -7 -6 -5 -5 -5 -5 -5 -6 -5 -5 -5 -6 -6
-0 -0 -1 2 2 2 1 -1 -2 -2 -4 -5 -6 -7 -7 -7 -7 -6 -6 -6 -6 -7 -7 -7 -8 -7 -7 -5 -4 -4 -5 -5 -5 -5 -5 -6 -6 -6
-4 -6 -5 -3 -3 -5 -7 -6 -4 -5 -6 -7 -8 -8 -8 -9 -9 -9 -9 -9 -10 -10 -9 -9 -8 -8 -7 -6 -5 -5 -5 -5 -5 -5 -6 -6 -6 -5
-5 -5 -6 -6 -7 -6 -6 -6 -6 -6 -7 -8 -8 -8 -8 -8 -8 -8 -8 -8 -8 -8 -9 -9 -9 -8 -6 -6 -5 -5 -5 -5 -5 -6 -7 -6 -5 -5
-5 -5 -5 -6 -6 -6 -6 -6 -6 -7 -6 -7 -7 -7 -7 -7 -8 -7 -7 -6 -6 -6 -6 -7 -7 -8 -7 -7 -6 -5 -6 -6 -6 -7 -6 -6 -5 -5
-4 -4 -4 -4 -5 -5 -5 -6 -6 -6 -6 -6 -6 -6 -6 -7 -7 -6 -6 -6 -6 -6 -6 -6 -6 -5 -5 -7 -7 -6 -7 -7 -7 -7 -6 -6 -6 -5
-4 -5 -5 -5 -5 -5 -5 -6 -6 -7 -7 -6 -7 -7 -7 -7 -6 -7 -6 -6 -6 -6 -6 -6 -6 -6 -5 -4 -6 -8 -8 -8 -8 -8 -7 -7 -7 -6
-5 -5 -5 -5 -5 -6 -6 -7 -7 -7 -7 -7 -7 -7 -7 -7 -7 -7 -7 -7 -6 -6 -6 -6 -7 -8 -8 -8 -8 -8 -8 -9 -9 -9 -9 -8 -8 -6
-6 -6 -6 -6 -7 -7 -8 -8 -8 -9 -8 -8 -8 -8 -8 -8 -8 -9 -10 -9 -9 -7 -6 -7 -8 -10 -10 -8 -7 -7 -8 -8 -9 -9 -9 -9 -7 -5
-7 -7 -8 -8 -8 -9 -9 -9 -9 -9 -9 -9 -9 -9 -9 -9 -9 -9 -9 -8 -8 -8 -8 -8 -8 -8 -8 -8 -7 -8 -7 -8 -8 -8 -7 -8 -8 -5
-8 -8 -9 -9 -9 -9 -9 -10 -10 -10 -10 -10 -10 -10 -10 -10 -10 -10 -10 -10 -10 -9 -9 -9 -8 -8 -8 -7 -8 -8 -7 -7 -7 -7 -6 -6 -7 -6

GFSNE_925_temp_114.txt.gz
Temp
11 12 12 12 13 13 14 14 15 13 13 16 17 16 16 16 16 16 15 15 14 14 14 13 13 13 12 12 12 12 12 11 11 12 11 10 9 9
11 12 12 12 13 13 13 13 14 16 13 16 16 16 16 16 15 15 15 14 14 13 13 13 12 12 12 12 13 13 12 12 11 10 9 9 8 8
11 11 12 12 12 12 12 12 14 14 15 16 16 16 15 15 14 14 13 13 13 13 13 12 12 12 13 13 12 11 9 9 8 8 7 6 5 4
11 11 11 11 11 11 12 12 12 14 14 15 15 15 14 14 13 13 12 12 13 12 12 12 12 12 11 11 9 9 8 8 7 7 5 4 2 2
11 11 11 11 11 11 11 12 12 13 14 15 15 14 14 14 13 12 11 10 11 11 11 10 9 8 8 7 7 7 5 4 3 2 1 1 1 1
11 11 11 11 11 11 11 11 12 11 12 13 12 12 13 12 12 12 10 9 8 9 6 5 5 3 3 3 2 2 1 0 0 0 0 -0 -1 -1
11 11 11 11 11 11 10 10 11 11 10 11 11 11 11 11 11 12 10 9 6 6 4 2 1 1 -0 -1 -1 -1 -1 -1 -0 -2 -2 -2 -2 -2
10 10 11 11 11 11 11 10 11 11 10 10 10 10 10 11 11 11 10 6 3 3 3 -0 -1 -1 -2 -3 -3 -3 -2 -3 -3 -3 -3 -2 -2 -3
10 10 10 10 10 10 10 10 10 10 10 10 10 10 10 10 10 11 10 9 5 2 1 -3 -3 -3 -4 -4 -4 -4 -4 -4 -4 -3 -3 -3 -3 -3
10 10 10 10 10 10 9 9 9 9 9 9 9 9 9 9 9 9 8 5 -0 -2 -1 -4 -4 -5 -4 -4 -4 -5 -6 -6 -5 -5 -5 -6 -7 -7
10 9 10 10 10 9 9 8 6 5 5 7 7 6 5 4 4 4 4 1 -4 -4 -3 -4 -5 -5 -5 -5 -5 -5 -7 -5 -5 -6 -5 -6 -7 -6
9 9 10 10 9 10 9 8 5 1 1 -0 0 0 0 0 1 1 1 0 -4 -5 -5 -5 -5 -5 -5 -5 -5 -6 -5 -5 -6 -6 -5 -5 -6 -6
6 6 6 8 9 8 8 7 4 -1 -3 -1 -2 -3 -3 -3 -3 -3 -2 -1 -3 -6 -6 -5 -6 -6 -5 -6 -5 -5 -5 -5 -5 -5 -5 -6 -6 -6
0 -0 -0 3 3 4 3 1 -1 -1 -2 -4 -5 -7 -6 -6 -6 -5 -5 -4 -5 -6 -6 -5 -6 -6 -6 -5 -4 -4 -5 -5 -5 -5 -6 -6 -6 -6
-3 -4 -4 -3 -3 -5 -5 -4 -3 -4 -5 -6 -8 -8 -8 -8 -7 -7 -6 -6 -6 -6 -6 -6 -6 -6 -5 -5 -5 -5 -5 -5 -5 -6 -6 -6 -6 -5
-5 -5 -5 -6 -6 -6 -5 -5 -5 -5 -6 -7 -8 -8 -8 -8 -7 -7 -7 -7 -7 -7 -7 -6 -6 -6 -6 -6 -5 -5 -5 -6 -6 -7 -7 -6 -6 -5
-5 -5 -5 -6 -6 -6 -6 -6 -6 -7 -7 -7 -8 -7 -7 -7 -7 -6 -6 -6 -6 -6 -6 -6 -6 -6 -6 -6 -6 -6 -6 -7 -7 -7 -7 -7 -6 -6
-4 -4 -5 -5 -5 -6 -6 -6 -6 -6 -6 -6 -6 -7 -7 -6 -6 -6 -5 -6 -6 -6 -6 -6 -6 -6 -6 -7 -7 -7 -7 -8 -8 -8 -8 -8 -7 -6
-5 -5 -5 -5 -6 -6 -7 -7 -7 -6 -6 -7 -7 -7 -7 -6 -6 -6 -6 -6 -6 -6 -6 -6 -7 -7 -7 -10 -7 -7 -8 -8 -9 -9 -9 -8 -8 -7
-5 -6 -6 -6 -6 -7 -7 -7 -7 -7 -7 -7 -7 -7 -7 -7 -7 -7 -7 -6 -6 -6 -6 -7 -8 -9 -9 -9 -9 -8 -8 -8 -8 -9 -9 -9 -9 -8
-7 -7 -7 -8 -9 -9 -8 -8 -8 -8 -8 -8 -8 -8 -8 -8 -8 -8 -8 -8 -7 -7 -7 -8 -8 -9 -8 -8 -8 -7 -8 -8 -8 -8 -8 -9 -8 -7
-8 -8 -8 -9 -9 -9 -9 -9 -9 -9 -9 -9 -9 -9 -9 -9 -9 -9 -9 -9 -9 -9 -8 -8 -8 -8 -8 -8 -8 -8 -8 -8 -7 -7 -7 -8 -8 -7
-9 -9 -9 -9 -9 -9 -9 -10 -10 -10 -10 -10 -10 -10 -10 -10 -10 -10 -10 -10 -10 -10 -10 -10 -9 -8 -8 -8 -8 -8 -8 -8 -8 -8 -7 -7 -7 -7

GFSNE_925_temp_117.txt.gz
Temp
12 12 12 12 12 12 12 13 14 12 12 14 15 15 15 15 16 16 16 16 15 15 14 14 14 13 13 12 12 12 12 11 12 12 11 11 10 9
12 12 12 12 12 12 12 12 12 13 12 14 16 16 16 16 16 16 15 15 15 14 14 13 13 13 12 12 12 12 12 12 11 10 9 8 8 8
11 11 11 12 12 12 11 12 13 12 12 14 15 16 16 16 15 14 14 14 14 13 13 14 12 12 12 12 12 12 12 10 9 9 9 8 7 6
11 11 11 11 12 11 11 11 12 12 12 13 15 15 15 15 15 14 13 12 13 12 12 12 13 12 11 11 9 9 8 8 8 8 7 6 4 3
11 11 11 11 11 11 11 11 12 12 12 12 13 13 14 14 12 11 12 12 11 11 10 10 11 11 9 7 7 7 6 5 5 4 3 3 2 2
11 11 11 11 11 11 11 11 11 11 11 11 12 12 12 11 12 11 9 9 9 8 7 7 6 4 5 4 4 3 2 1 0 -0 -0 -0 -1 -1
11 11 11 11 11 11 11 11 11 11 11 10 11 10 11 11 11 10 10 8 6 6 4 2 1 1 -0 -1 -1 -1 -1 -1 -1 -1 -2 -3 -3 -3
11 11 11 11 11 11 11 11 11 10 10 10 10 10 10 10 10 10 10 6 3 3 2 -0 -0 -1 -1 -2 -3 -2 -2 -3 -4 -4 -3 -3 -2 -3
10 10 11 11 11 10 10 10 10 10 10 10 10 10 11 11 10 10 10 9 6 3 2 -2 -2 -2 -3 -3 -3 -4 -4 -5 -6 -6 -6 -4 -3 -2
10 10 10 10 10 10 9 9 9 9 9 10 10 10 10 10 10 9 9 7 2 0 -0 -4 -4 -4 -4 -4 -4 -5 -5 -5 -7 -7 -5 -6 -6 -5
9 10 10 10 10 10 9 9 7 7 7 8 8 8 8 7 7 7 5 2 -2 -3 -2 -3 -4 -5 -5 -5 -5 -5 -5 -7 -6 -5 -5 -5 -6 -6
8 9 9 9 10 10 9 9 6 3 3 3 2 2 3 3 3 4 3 2 -2 -4 -3 -3 -5 -5 -5 -5 -5 -6 -6 -6 -5 -6 -5 -5 -6 -6
6 6 7 9 9 9 9 8 6 2 -1 0 -0 -1 -0 -0 -0 0 0 1 -0 -4 -4 -4 -5 -5 -5 -6 -6 -6 -5 -5 -5 -5 -5 -6 -6 -6
2 1 1 5 6 5 5 3 1 -1 -1 -2 -3 -5 -4 -4 -4 -3 -3 -2 -2 -2 -4 -4 -5 -5 -6 -6 -5 -5 -5 -5 -5 -6 -6 -6 -6 -5
-2 -4 -4 -3 -2 -3 -3 -2 -2 -2 -3 -5 -7 -7 -6 -6 -5 -5 -5 -5 -5 -5 -5 -5 -4 -5 -4 -4 -5 -5 -5 -6 -6 -6 -6 -6 -6 -5
-5 -5 -5 -5 -5 -5 -4 -4 -4 -5 -5 -7 -7 -7 -7 -7 -6 -6 -6 -6 -6 -6 -6 -5 -5 -5 -5 -5 -5 -5 -6 -6 -7 -7 -7 -6 -6 -6
-5 -5 -5 -6 -6 -6 -6 -7 -6 -6 -7 -7 -7 -8 -7 -6 -6 -6 -6 -6 -6 -6 -6 -6 -6 -6 -6 -6 -6 -6 -7 -7 -7 -8 -8 -7 -7 -6
-5 -5 -6 -6 -7 -7 -7 -7 -7 -7 -7 -7 -7 -7 -6 -6 -6 -6 -6 -6 -6 -6 -6 -6 -6 -6 -7 -7 -7 -7 -7 -8 -8 -8 -8 -8 -8 -7
-6 -7 -7 -7 -7 -7 -7 -7 -7 -6 -6 -6 -6 -6 -6 -6 -6 -6 -6 -6 -6 -6 -7 -7 -6 -6 -9 -12 -8 -8 -8 -8 -8 -8 -8 -9 -9 -8
-7 -8 -8 -8 -8 -8 -8 -7 -7 -7 -7 -7 -7 -7 -7 -7 -7 -6 -6 -6 -6 -7 -8 -8 -8 -8 -8 -9 -9 -8 -8 -8 -8 -8 -8 -8 -8 -7
-8 -8 -8 -8 -8 -8 -8 -8 -8 -8 -8 -8 -8 -8 -7 -7 -8 -8 -7 -7 -7 -8 -8 -8 -8 -8 -8 -9 -8 -8 -8 -8 -8 -8 -8 -8 -8 -7
-9 -9 -9 -9 -9 -9 -9 -9 -9 -9 -9 -9 -9 -9 -9 -9 -9 -9 -9 -9 -9 -9 -9 -9 -9 -8 -8 -8 -8 -8 -8 -8 -8 -8 -8 -8 -8 -8
-10 -10 -10 -10 -9 -9 -10 -10 -10 -10 -10 -10 -10 -10 -10 -10 -10 -10 -10 -10 -10 -10 -10 -10 -10 -9 -9 -9 -9 -9 -9 -9 -9 -9 -8 -8 -8 -7